Regional Weather Roundup
Issued by NWS

Home | Current Version | Previous Version | Text Only | Print | Product List | Glossary On
Versions: 1 2 3 4 5 6 7 8 9 10 11 12 13 14 15 16 17 18 19 20 21 22 23 24 25 26 27 28 29 30 31 32 33 34 35 36 37 38 39 40 41 42 43 44 45 46 47 48 49 50
827
ASUS44 KLIX 261301
RWRLA
LOUISIANA WEATHER ROUNDUP
NATIONAL WEATHER SERVICE NEW ORLEANS LA
700 AM CST THU FEB 26 2015

NOTE: "FAIR" INDICATES FEW OR NO CLOUDS BELOW 12,000 FEET WITH NO
      SIGNIFICANT WEATHER AND/OR OBSTRUCTIONS TO VISIBILITY.
      SKY/WX - SKY CONDITION AND SIGNIFICANT WEATHER.
      TMP - AIR TEMPERATURE.    DP   - DEWPOINT TEMPERATURE.
      RH  - RELATIVE HUMIDITY.  PRES - PRESSURE.
      HX  - HEAT INDEX.         WCI  - WIND CHILL INDEX.

*  THESE STATIONS ARE NOT NWS OR FAA STATIONS AND ARE NOT UNDER
   NWS QUALITY CONTROL.

LAZ040-048-061>063-065-066-069-261400-
SOUTHEAST LOUISIANA

CITY           SKY/WX    TMP DP  RH WIND       PRES   REMARKS
N.O. AUDUBON   NOT AVBL
N.O. INTL ARPT CLOUDY    38  33  82 N15       29.97R WCI  29
N.O. LAKEFRONT CLOUDY    41  34  76 N18       29.98R
SLIDELL        CLOUDY    37  33  85 N8        29.97R WCI  31
BATON ROUGE    CLOUDY    35  32  88 NW5       30.01R WCI  31
BOOTHVILLE     CLOUDY    41  37  86 N12G17    29.96R
BELLE CHASSE   CLOUDY    40  33  76 N9G17     29.96R WCI  34
BOGALUSA*        N/A     37  33  84 N7        29.99R WCI  32
GALLIANO*      CLOUDY    41  37  84 NW14      29.98R
NEW ROADS*     NOT AVBL
GONZALES*      NOT AVBL
HAMMOND*       NOT AVBL
HOUMA*         NOT AVBL
PORT FOURCHON* NOT AVBL

$$

LAZ041-044-053-054-261400-
SOUTHWEST LOUISIANA

CITY           SKY/WX    TMP DP  RH WIND       PRES   REMARKS
LAKE CHARLES   CLOUDY    38  33  82 N8        30.05R WCI  32
LAFAYETTE      CLOUDY    36  32  85 N9        30.03R WCI  29
PATTERSON      CLOUDY    37  32  81 N13       30.02R WCI  29
SALT POINT       N/A     37  33  85 N7        30.00R WCI  32
NEW IBERIA     CLOUDY    37  32  82 N12       30.02R WCI  29
CHENAULT AIRPK NOT AVBL

$$

LAZ027-028-261400-
CENTRAL LOUISIANA

CITY           SKY/WX    TMP DP  RH WIND       PRES   REMARKS
FORT POLK      CLOUDY    35  32  90 VRB1      30.05R
ALEXANDRIA INT CLOUDY    35  33  92 NW5       30.03R WCI  31
ALEXANDRIA     CLOUDY    36  32  85 N3        30.04R

$$

LAZ001-002-261400-
NORTHWEST LOUISIANA

CITY           SKY/WX    TMP DP  RH WIND       PRES   REMARKS
SHREVEPORT     CLOUDY    33  32  96 NW6       30.08R WCI  28
BARKSDALE AFB  CLOUDY    31  31  99 N7        30.08R WCI  24
DTN SHREVEPORT FOG       31  29  92 N5        30.09R VSB 1   WCI  26

$$

LAZ014-016-261400-
NORTHEAST LOUISIANA

CITY           SKY/WX    TMP DP  RH WIND       PRES   REMARKS
MONROE         CLOUDY    33  32  96 N6        30.06R WCI  28
TALLULAH       CLOUDY    33  30  88 NW6       30.04R WCI  28

$$




USA.gov is the U.S. government's official web portal to all federal, state and local government web resources and services.